This demonstration page uses our WeatherBlox Daily Observations layout. Learn more.

Left ArrowRight Arrow

Hourly Observations for October 25, 2019

Temp ( °F °C ) Dew Point ( °F °C ) Humidity (%) Winds ( mph kmh ) Pressure ( in mb ) Visibility ( mi km ) Precip ( " mm )
12:53 am 00:53 Clear 50 10 46 7.8 86 86 NW 3 6 30.29 1026 10 16 0.00 0.00
1:53 am 01:53 Mostly Clear 50 10 45 7.2 83 83 Calm 30.29 1026 10 16 0.00 0.00
2:53 am 02:53 Cloudy 51 10.6 44 6.7 77 77 Calm 30.27 1025 10 16 0.00 0.00
3:53 am 03:53 Mostly Cloudy 50 10 45 7.2 83 83 Calm 30.27 1025 10 16 0.00 0.00
4:53 am 04:53 Cloudy 50 10 44 6.7 80 80 Calm 30.29 1026 10 16 0.00 0.00
5:53 am 05:53 Cloudy 49 9.4 45 7.2 86 86 Calm 30.30 1026 10 16 0.00 0.00
6:53 am 06:53 Cloudy 49 9.4 45 7.2 86 86 Calm 30.30 1026 10 16 0.00 0.00
7:53 am 07:53 Cloudy 50 10 44 6.7 80 80 Calm 30.29 1026 10 16 0.00 0.00
8:53 am 08:53 Sunny 50 10 46 7.8 86 86 Calm 30.31 1026 10 16 0.00 0.00
9:53 am 09:53 Partly Cloudy 52 11.1 45 7.2 77 77 Calm 30.31 1026 10 16 0.00 0.00
10:53 am 10:53 Cloudy 53 11.7 45 7.2 74 74 Calm 30.31 1026 10 16 0.00 0.00
11:53 am 11:53 Cloudy 55 12.8 46 7.8 72 72 Calm 30.30 1026 10 16 0.00 0.00
12:53 pm 12:53 Mostly Cloudy 56 13.3 46 7.8 70 70 Calm 30.28 1025 10 16 0.00 0.00
1:53 pm 13:53 Mostly Cloudy 57 13.9 46 7.8 67 67 WNW 3 6 30.26 1025 10 16 0.00 0.00
2:53 pm 14:53 Cloudy 59 15 46 7.8 62 62 N 5 7 30.24 1024 10 16 0.00 0.00
3:53 pm 15:53 Cloudy 59 15 46 7.8 62 62 Calm 30.22 1023 10 16 0.00 0.00
4:53 pm 16:53 Cloudy 59 15 46 7.8 62 62 Calm 30.23 1024 10 16 0.00 0.00
5:53 pm 17:53 Cloudy 57 13.9 50 10 78 78 Calm 30.22 1024 10 16 0.00 0.00
6:53 pm 18:53 Clear 54 12.2 50 10 87 87 Calm 30.23 1024 10 16 0.00 0.00
7:53 pm 19:53 Clear 52 11.1 49 9.4 89 89 Calm 30.24 1024 10 16 0.00 0.00
8:53 pm 20:53 Clear 55 12.8 47 8.3 74 74 NNE 7 11 30.23 1024 10 16 0.00 0.00
9:53 pm 21:53 Clear 54 12.2 46 7.8 75 75 NNE 6 9 30.23 1024 10 16 0.00 0.00
10:53 pm 22:53 Clear 50 10 47 8.3 89 89 Calm 30.23 1024 9 14 0.00 0.00
11:53 pm 23:53 Clear 49 9.4 47 8.3 93 93 Calm 30.22 1024 8 13 0.00 0.00

Powered by AerisWeather